Pagosa Springs, CO

4:04 PM MST on December 14, 2017 (GMT -0700)
Pagosa Springs

Weather History for KPSO - March, 2013

Change the Weather History Date:

Thursday, March 28, 2013

  Actual Average (KE33) Record (KE33)
Temperature  
Mean Temperature 43 °F -  
Max Temperature 58 °F 49 °F 62 °F (2012)
Min Temperature 28 °F 29 °F 15 °F (2009)
Degree Days  
Heating Degree Days 22    
Moisture  
Dew Point 14 °F    
Average Humidity 35    
Maximum Humidity 65    
Minimum Humidity 11    
Precipitation  
Precipitation 0.00 in - - ()
Sea Level Pressure  
Sea Level Pressure 30.18 in    
Wind  
Wind Speed 2 mph (SSW)    
Max Wind Speed 18 mph    
Max Gust Speed 22 mph    
Visibility 10 miles    
Events Thunderstorm    
Averages and records for this station are not official NWS values.
T = Trace of Precipitation, MM = Missing Value Source: NWS Daily Summary

Daily Weather History Graph

Daily Weather History Graph

Search for Another Location

Airport or City:

Trip Planner

Search our weather history database for the weather conditions in past years. The results will help you decide how hot, cold, wet, or windy it might be!

Date:

Astronomy

Mar. 28, 2013 Rise Set
Actual Time 6:59 AM MDT 7:27 PM MDT
Civil Twilight 6:33 AM MDT 7:53 PM MDT
Nautical Twilight 6:02 AM MDT 8:24 PM MDT
Astronomical Twilight 5:31 AM MDT 8:56 PM MDT
Moon 9:19 PM MDT (3/28) 7:31 AM MDT (3/28)
Length of Visible Light 13h 20m
Length of Day
12h 28m
Full, 98% of the Moon is Illuminated
Mar 28
Full
Apr 2
Last Quarter
Apr 10
New
Apr 18
First Quarter
Apr 25
Full

Hourly Weather History & Observations

Time (MDT) Temp. Windchill Dew Point Humidity Pressure Visibility Wind Dir Wind Speed Gust Speed Precip Events Conditions
12:15 AM 34.7 °F - 17.6 °F 50% 30.15 in 10.0 mi Calm Calm - N/A   Clear
12:35 AM 34.2 °F - 12.0 °F 40% 30.16 in 10.0 mi Calm Calm - N/A   Clear
12:55 AM 34.2 °F - 12.0 °F 40% 30.16 in 10.0 mi Calm Calm - N/A   Clear
1:15 AM 32.9 °F - 17.1 °F 52% 30.16 in 10.0 mi Calm Calm - N/A   Clear
1:35 AM 32.0 °F - 18.0 °F 56% 30.16 in 10.0 mi Calm Calm - N/A   Clear
1:55 AM 33.6 °F - 15.8 °F 48% 30.17 in 10.0 mi Calm Calm - N/A   Clear
2:15 AM 32.0 °F - 19.8 °F 61% 30.17 in 10.0 mi Calm Calm - N/A   Clear
2:35 AM 30.9 °F - 18.3 °F 60% 30.17 in 10.0 mi Calm Calm - N/A   Clear
2:55 AM 31.3 °F - 16.0 °F 53% 30.17 in 10.0 mi Calm Calm - N/A   Clear
3:15 AM 31.1 °F - 14.4 °F 50% 30.16 in 10.0 mi Calm Calm - N/A   Clear
3:35 AM 29.8 °F - 14.2 °F 52% 30.17 in 10.0 mi Calm Calm - N/A   Clear
3:55 AM 29.3 °F - 16.0 °F 58% 30.17 in 10.0 mi Calm Calm - N/A   Scattered Clouds
4:15 AM 29.3 °F - 14.9 °F 55% 30.16 in 10.0 mi Calm Calm - N/A   Clear
4:35 AM 30.0 °F - 15.3 °F 54% 30.16 in 10.0 mi Calm Calm - N/A   Clear
4:55 AM 29.3 °F - 16.2 °F 58% 30.16 in 10.0 mi Calm Calm - N/A   Clear
5:15 AM 28.6 °F - 16.7 °F 61% 30.16 in 10.0 mi Calm Calm - N/A   Clear
5:35 AM 29.5 °F - 13.1 °F 51% 30.17 in 10.0 mi Calm Calm - N/A   Clear
5:55 AM 28.6 °F - 15.4 °F 58% 30.17 in 10.0 mi Calm Calm - N/A   Clear
6:15 AM 28.4 °F - 16.9 °F 62% 30.17 in 10.0 mi Calm Calm - N/A   Clear
6:35 AM 28.4 °F - 16.7 °F 62% 30.17 in 10.0 mi Calm Calm - N/A   Clear
6:55 AM 28.4 °F - 16.0 °F 60% 30.18 in 10.0 mi Calm Calm - N/A   Clear
7:15 AM 29.1 °F - 16.3 °F 59% 30.19 in 10.0 mi Calm Calm - N/A   Clear
7:35 AM 28.0 °F - 17.6 °F 65% 30.19 in 10.0 mi Calm Calm - N/A   Clear
7:55 AM 31.1 °F - 19.2 °F 61% 30.20 in 10.0 mi Calm Calm - N/A   Clear
8:15 AM 34.7 °F 31.8 °F 18.5 °F 52% 30.19 in 10.0 mi NE 3.5 mph - N/A   Clear
8:35 AM 37.8 °F - 16.5 °F 42% 30.20 in 10.0 mi Calm Calm - N/A   Clear
8:55 AM 39.2 °F - 14.9 °F 37% 30.20 in 10.0 mi Calm Calm - N/A   Clear
9:15 AM 40.5 °F - 18.1 °F 41% 30.21 in 10.0 mi Calm Calm - N/A   Clear
9:35 AM 43.0 °F - 16.3 °F 34% 30.21 in 10.0 mi Calm Calm - N/A   Clear
9:55 AM 45.5 °F 43.2 °F 14.9 °F 29% 30.21 in 10.0 mi SW 4.6 mph - N/A   Clear
10:15 AM 47.1 °F - 13.1 °F 25% 30.21 in 10.0 mi Calm Calm - N/A   Clear
10:35 AM 48.6 °F - 12.6 °F 24% 30.22 in 10.0 mi SW 3.5 mph - N/A   Clear
10:55 AM 49.6 °F - 12.9 °F 23% 30.22 in 10.0 mi Calm Calm - N/A   Clear
11:15 AM 50.9 °F - 13.6 °F 23% 30.22 in 10.0 mi ESE 3.5 mph - N/A   Clear
11:35 AM 52.2 °F - 13.1 °F 21% 30.22 in 10.0 mi South 4.6 mph - N/A   Clear
11:55 AM 52.3 °F - 10.6 °F 19% 30.21 in 10.0 mi Calm Calm - N/A   Clear
12:15 PM 53.4 °F - 8.6 °F 17% 30.20 in 10.0 mi Calm Calm - N/A   Clear
12:35 PM 54.1 °F - 10.0 °F 17% 30.20 in 10.0 mi South 9.2 mph 17.3 mph N/A   Clear
12:55 PM 53.8 °F - 9.3 °F 17% 30.19 in 10.0 mi Calm Calm - N/A   Clear
1:15 PM 55.2 °F - 9.3 °F 16% 30.19 in 10.0 mi SSE 4.6 mph - N/A   Clear
1:35 PM 55.8 °F - 9.1 °F 16% 30.19 in 10.0 mi SW 8.1 mph - N/A   Clear
1:55 PM 55.4 °F - 9.5 °F 16% 30.18 in 10.0 mi WSW 9.2 mph - N/A   Clear
2:15 PM 57.2 °F - 3.4 °F 11% 30.17 in 10.0 mi South 6.9 mph - N/A Thunderstorm Thunderstorm
2:35 PM 57.0 °F - 7.3 °F 14% 30.17 in 10.0 mi SW 9.2 mph 18.4 mph N/A   Clear
2:55 PM 57.4 °F - 9.0 °F 15% 30.16 in 10.0 mi WSW 6.9 mph 17.3 mph N/A   Clear
3:15 PM 57.6 °F - 3.7 °F 12% 30.16 in 10.0 mi SSW 4.6 mph - N/A   Clear
3:35 PM 57.9 °F - 6.1 °F 13% 30.15 in 10.0 mi SSW 18.4 mph - N/A Thunderstorm Thunderstorm
3:55 PM 58.6 °F - 7.7 °F 13% 30.15 in 10.0 mi SW 12.7 mph 18.4 mph N/A   Clear
4:15 PM 58.5 °F - 6.8 °F 13% 30.14 in 10.0 mi WSW 8.1 mph 18.4 mph N/A   Clear
4:35 PM 58.8 °F - 7.5 °F 13% 30.14 in 10.0 mi SW 12.7 mph 21.9 mph N/A   Clear
4:55 PM 58.8 °F - 7.7 °F 13% 30.14 in 10.0 mi WSW 11.5 mph 18.4 mph N/A   Clear
5:15 PM 58.1 °F - 5.9 °F 12% 30.14 in 10.0 mi SSW 8.1 mph 18.4 mph N/A   Clear
5:35 PM 57.9 °F - 7.2 °F 13% 30.14 in 10.0 mi SSW 12.7 mph 21.9 mph N/A   Clear
5:55 PM 57.4 °F - 8.8 °F 14% 30.15 in 10.0 mi SW 10.4 mph 18.4 mph N/A   Clear
6:15 PM 57.2 °F - 8.8 °F 15% 30.15 in 10.0 mi SW 10.4 mph 17.3 mph N/A   Clear
6:35 PM 56.3 °F - 9.0 °F 15% 30.15 in 10.0 mi SW 9.2 mph - N/A   Clear
6:55 PM 55.8 °F - 10.4 °F 16% 30.16 in 10.0 mi SSW 10.4 mph - N/A   Clear
7:15 PM 54.1 °F - 13.8 °F 20% 30.17 in 10.0 mi SSW 9.2 mph - N/A   Clear
7:35 PM 52.3 °F - 14.9 °F 23% 30.17 in 10.0 mi SSW 5.8 mph - N/A   Clear
7:55 PM 50.4 °F - 17.2 °F 27% 30.18 in 10.0 mi Calm Calm - N/A   Clear
8:15 PM 42.8 °F - 24.1 °F 48% 30.19 in 10.0 mi Calm Calm - N/A   Clear
8:35 PM 41.5 °F - 24.3 °F 50% 30.19 in 10.0 mi Calm Calm - N/A   Clear
8:55 PM 42.4 °F 38.8 °F 17.1 °F 36% 30.20 in 10.0 mi NE 5.8 mph - N/A   Clear
9:15 PM 43.5 °F - 15.6 °F 33% 30.20 in 10.0 mi Calm Calm - N/A   Clear
9:35 PM 42.3 °F 39.4 °F 16.9 °F 36% 30.20 in 10.0 mi NNE 4.6 mph - N/A   Clear
9:55 PM 42.1 °F 38.4 °F 16.0 °F 35% 30.21 in 10.0 mi NNE 5.8 mph - N/A   Clear
10:15 PM 41.4 °F - 17.8 °F 39% 30.21 in 10.0 mi Calm Calm - N/A   Clear
10:35 PM 41.5 °F 37.8 °F 16.2 °F 36% 30.22 in 10.0 mi NNE 5.8 mph - N/A   Clear
10:55 PM 40.8 °F 38.8 °F 15.4 °F 36% 30.22 in 10.0 mi NE 3.5 mph - N/A   Clear
11:15 PM 39.0 °F 36.8 °F 18.1 °F 43% 30.22 in 10.0 mi NE 3.5 mph - N/A   Clear
11:35 PM 39.2 °F 37.0 °F 17.4 °F 41% 30.22 in 10.0 mi NE 3.5 mph - N/A   Clear
11:55 PM 36.9 °F - 19.9 °F 50% 30.23 in 10.0 mi Calm Calm - N/A   Scattered Clouds